GFSNIL_sfc_30mbdewp_000.txt.gz
Dewpoint
27 23 22 22 21 20 21 21 22 23 22 22 23 23 23 23 23 24 28 28 29 27
25 23 20 22 22 20 21 19 17 21 22 23 24 25 25 25 25 26 28 30 31 30
23 21 20 21 21 21 21 20 20 21 22 22 23 24 24 24 24 24 27 27 28 29
20 20 21 21 21 20 21 21 21 21 22 22 22 23 23 24 24 24 25 25 27 27
21 22 21 20 21 21 21 22 22 22 21 20 20 20 21 22 22 23 24 24 24 24
22 21 21 21 21 21 21 21 20 18 17 17 18 19 20 21 23 23 24 25 25 25
22 22 22 21 21 21 21 18 16 16 16 17 18 19 21 21 22 23 24 26 27 28
23 23 21 20 20 20 17 15 15 15 15 17 19 20 20 21 21 22 23 25 26 26
23 21 19 19 18 15 12 12 13 14 15 18 19 20 22 22 22 23 24 25 25 26
20 19 18 17 13 11 11 12 13 15 18 20 20 21 21 21 23 25 25 25 25 24
19 17 16 13 10 10 11 12 15 18 20 20 20 21 21 22 24 26 26 26 25 25
18 17 13 10 9 11 13 15 18 19 20 20 22 22 22 23 25 26 25 25 25 25
17 13 10 9 10 12 14 17 20 21 21 22 23 23 23 25 26 25 25 25 26 26
14 11 9 9 11 12 17 21 23 23 24 24 25 26 25 26 28 27 27 26 26 28

GFSNIL_sfc_30mbdewp_003.txt.gz
Dewpoint
30 30 30 26 25 24 22 23 23 23 23 22 22 22 24 25 27 27 27 28 29 28
31 29 25 23 25 23 22 20 19 21 22 21 21 21 23 26 26 27 28 30 32 31
28 26 24 24 23 22 22 22 21 20 20 20 20 21 23 25 25 27 28 27 29 29
25 23 22 22 21 22 22 21 20 20 19 20 21 21 22 22 24 24 25 26 27 28
24 22 21 22 22 22 22 21 21 20 20 20 19 19 19 20 20 21 21 23 24 25
21 23 23 22 22 22 21 20 20 19 19 18 18 18 19 18 19 20 22 23 24 25
25 23 22 23 23 22 21 20 19 18 17 17 18 18 17 18 19 21 22 24 25 25
25 24 24 23 22 21 20 19 17 15 16 17 17 16 17 19 20 22 23 23 24 25
24 23 22 21 21 19 17 14 15 15 16 16 16 18 23 23 22 23 23 24 24 23
22 21 21 20 18 15 14 14 15 15 15 17 19 21 23 23 23 24 25 24 25 25
20 20 20 18 15 13 14 14 15 16 17 19 20 22 24 24 24 25 25 25 25 26
19 20 17 14 14 14 14 15 15 17 20 21 22 23 24 24 27 26 26 25 25 26
19 17 14 14 14 14 14 14 19 21 22 22 23 25 26 27 28 28 28 27 27 26
17 15 15 14 13 13 15 20 24 25 24 24 26 27 29 30 29 28 26 25 27 30

GFSNIL_sfc_30mbdewp_006.txt.gz
Dewpoint
36 35 35 35 33 28 27 26 27 26 27 27 27 28 28 28 29 29 29 29 30 30
36 35 34 32 30 28 28 25 27 27 27 27 29 29 29 28 27 29 29 30 30 30
33 33 30 28 28 26 26 25 27 26 26 26 26 26 26 27 28 28 28 28 29 29
31 30 27 26 25 25 27 26 26 26 25 24 24 24 25 25 26 25 25 26 26 26
29 27 26 25 26 27 27 27 26 25 24 23 23 23 23 23 23 23 23 23 24 24
27 26 25 28 28 28 27 25 25 24 24 23 23 22 22 22 22 22 22 22 23 23
24 25 28 28 27 27 26 26 25 24 23 22 21 20 20 20 20 21 21 24 25 26
32 31 31 27 27 26 26 25 24 21 20 21 21 19 18 21 22 22 23 24 24 24
35 29 26 26 25 24 24 22 20 20 20 21 19 19 22 26 24 24 23 24 24 24
33 26 24 24 23 23 21 20 20 20 20 20 21 22 25 25 24 24 24 24 24 24
24 22 22 23 22 19 19 19 19 20 20 21 23 24 24 24 24 24 25 25 25 25
21 21 22 20 18 19 19 18 19 20 22 22 23 24 24 25 25 28 28 27 26 26
21 20 18 18 18 18 18 17 21 21 24 25 23 24 25 26 28 28 28 27 28 28
20 17 18 18 18 16 17 20 21 25 24 23 24 25 26 25 27 28 26 26 26 25

GFSNIL_sfc_30mbdewp_009.txt.gz
Dewpoint
39 39 36 36 36 33 29 29 30 30 30 29 31 32 34 32 28 29 29 28 29 30
39 39 37 34 29 29 29 29 31 32 31 34 35 35 32 31 29 29 29 30 30 31
35 31 32 31 28 27 29 31 32 34 35 35 34 31 27 28 28 28 29 29 29 29
31 28 28 28 27 28 29 32 34 34 34 31 26 26 27 27 27 26 26 27 26 27
29 27 26 25 27 29 30 31 29 29 28 26 27 27 26 25 25 24 24 24 25 25
27 26 26 28 28 29 29 29 29 26 26 26 26 25 25 23 22 22 23 23 23 23
26 26 29 29 30 29 28 28 27 26 26 26 24 22 22 22 21 22 23 24 25 25
34 32 31 31 29 29 27 26 26 26 23 22 23 20 20 24 25 24 24 24 25 24
35 34 32 28 27 26 24 25 22 21 22 21 21 21 27 26 25 25 24 23 23 23
37 36 35 30 25 24 24 21 20 20 20 20 23 24 24 24 23 23 23 23 24 24
36 34 24 23 23 21 20 19 18 19 21 22 22 24 25 25 25 25 24 25 25 25
23 22 22 21 19 18 18 17 19 21 20 22 24 25 25 25 26 26 26 27 27 27
21 21 19 18 18 18 18 17 20 20 24 23 24 24 25 24 26 26 25 25 25 25
20 19 20 20 19 16 17 19 20 21 21 23 24 23 23 23 26 26 25 25 25 25

GFSNIL_sfc_30mbdewp_012.txt.gz
Dewpoint
39 40 40 39 37 36 34 31 32 34 36 37 38 38 38 36 35 33 30 29 29 29
36 38 38 37 35 34 32 33 35 37 39 39 39 39 36 34 31 32 31 29 29 29
35 35 33 30 29 31 34 36 38 39 39 39 38 34 30 32 32 29 29 29 29 29
30 31 30 29 30 31 34 36 37 37 35 34 33 33 32 29 28 28 27 27 27 27
29 28 27 28 29 31 32 32 32 33 32 31 31 29 28 27 26 25 24 24 24 24
27 26 26 28 29 30 30 29 29 29 28 28 28 27 26 25 23 23 23 23 24 24
28 27 30 29 30 29 29 28 28 27 27 27 27 24 24 23 23 24 24 24 24 24
34 32 31 30 31 32 30 27 27 27 24 23 23 21 23 26 25 24 24 24 24 24
37 36 36 36 34 31 30 26 23 21 21 20 21 23 25 25 24 23 22 22 23 23
38 37 34 35 32 30 24 21 19 18 19 21 22 22 24 25 24 24 24 24 24 24
36 36 34 29 23 20 19 18 18 19 20 20 21 25 25 25 25 25 25 25 25 25
24 22 21 19 18 18 18 17 17 19 22 23 23 24 25 24 24 24 26 25 25 25
22 20 19 20 19 18 17 18 21 22 22 22 22 23 23 22 24 25 24 24 24 24
21 21 21 18 18 18 18 20 19 19 19 20 22 22 22 23 25 25 24 24 24 24

GFSNIL_sfc_30mbdewp_015.txt.gz
Dewpoint
38 37 38 39 40 39 36 33 36 37 38 39 39 39 39 38 38 39 38 36 35 31
34 34 36 37 36 35 34 36 38 39 40 39 38 39 40 37 35 35 34 33 31 30
33 34 35 33 33 33 34 37 39 39 38 38 38 38 38 35 33 32 31 30 29 29
33 32 32 31 32 34 37 37 38 34 34 36 36 35 34 32 31 29 28 27 26 25
33 30 29 30 31 33 33 33 31 32 33 33 33 32 29 28 27 25 24 24 24 24
30 28 28 29 31 31 31 30 30 30 30 29 29 28 27 26 24 24 24 25 25 25
29 27 29 30 31 30 30 30 29 28 28 28 25 23 23 22 23 24 24 24 24 24
33 33 35 37 36 35 33 32 29 26 23 22 21 20 23 25 24 23 23 23 23 23
38 38 37 36 33 33 34 30 23 20 20 19 21 23 24 24 25 25 23 22 23 24
37 37 37 36 35 33 25 20 19 19 20 20 21 23 25 25 25 25 24 24 24 24
36 36 32 26 22 19 19 18 18 18 20 22 22 23 23 24 25 24 24 25 25 25
23 22 21 19 19 19 17 17 18 21 22 21 20 22 22 23 23 23 23 24 25 25
21 21 20 20 18 18 18 19 21 21 20 20 20 21 23 23 23 24 24 24 23 23
22 22 20 19 18 19 20 20 18 17 17 19 20 21 23 23 23 24 23 23 23 25

GFSNIL_sfc_30mbdewp_018.txt.gz
Dewpoint
35 34 35 36 37 38 37 35 38 38 39 39 39 40 40 40 40 40 39 38 36 35
34 33 33 34 35 35 35 37 39 39 39 38 39 39 39 38 37 37 36 36 36 35
33 34 33 33 33 34 36 38 38 38 36 36 35 37 36 37 37 36 35 35 33 31
33 33 32 31 33 34 37 38 38 36 35 34 32 35 36 36 33 31 29 28 26 25
33 31 30 31 32 35 34 34 32 33 32 33 33 32 30 29 28 26 24 24 24 23
33 29 28 30 31 32 31 33 35 33 31 29 29 28 26 24 23 23 23 24 24 25
33 31 33 36 36 36 36 35 34 32 29 26 23 22 21 21 23 24 24 24 23 23
35 37 38 37 36 35 34 33 30 24 22 22 21 20 24 24 23 22 22 24 24 22
39 37 37 36 35 34 34 35 24 20 20 20 21 23 25 26 26 26 25 24 23 23
38 37 37 37 35 34 25 20 19 19 19 20 22 23 22 22 24 25 25 25 24 23
29 30 28 22 20 20 19 18 18 19 21 22 20 21 21 22 23 23 23 23 23 24
23 21 20 20 20 19 18 18 19 21 21 20 20 21 22 23 23 23 23 23 24 25
22 22 21 19 19 18 19 20 21 20 19 19 19 21 23 23 22 23 24 22 22 23
23 22 20 20 19 20 20 20 17 17 18 19 20 21 22 21 22 24 23 24 23 24

GFSNIL_sfc_30mbdewp_021.txt.gz
Dewpoint
38 37 36 35 36 36 36 37 39 39 39 39 40 40 40 40 40 38 37 36 34 33
37 37 36 36 36 35 37 38 40 40 39 39 39 39 39 38 37 37 37 36 36 35
37 36 36 35 33 34 37 39 39 39 38 38 37 37 37 36 36 36 36 35 35 35
37 37 34 32 33 35 38 39 38 35 34 34 35 35 35 35 34 33 31 30 29 27
37 34 30 32 33 35 34 36 37 37 37 37 35 32 30 29 28 26 24 23 22 21
35 31 33 36 37 37 38 37 37 36 33 32 31 26 24 22 21 21 21 22 22 23
34 36 37 37 36 36 36 34 33 33 28 25 22 20 20 21 22 22 22 22 22 21
36 38 36 36 36 35 34 34 35 33 24 23 21 19 22 21 22 22 21 21 21 21
39 39 38 37 36 35 36 34 25 22 21 21 19 23 24 23 20 20 20 20 20 20
34 33 33 31 24 22 22 22 20 20 20 21 22 21 21 21 20 21 20 20 20 20
25 24 23 22 22 21 20 20 20 20 21 20 18 20 21 22 22 22 21 21 21 21
23 22 22 21 20 20 20 20 20 20 19 18 19 19 21 23 22 21 21 22 22 21
24 23 22 21 21 20 20 19 20 19 19 20 20 21 22 21 21 21 20 21 21 23
24 23 22 21 20 19 19 21 22 22 22 21 20 22 21 20 21 21 22 21 21 24

GFSNIL_sfc_30mbdewp_024.txt.gz
Dewpoint
36 36 36 35 35 34 33 34 37 39 40 39 39 39 40 40 40 38 38 36 36 35
38 39 37 36 35 32 35 35 38 39 38 39 40 39 38 39 38 37 37 36 36 35
39 39 37 35 33 34 36 38 38 39 37 37 38 38 39 38 38 36 36 35 35 34
39 38 35 32 33 36 37 37 36 37 38 38 38 37 36 35 34 32 30 29 27 25
37 36 33 33 34 35 35 38 39 38 37 35 33 34 33 29 27 25 23 23 22 20
35 34 34 35 36 36 36 37 36 34 32 29 28 26 24 23 23 23 22 21 20 20
35 35 36 36 36 35 33 32 32 32 33 33 28 24 22 21 21 21 20 21 21 21
37 38 39 38 35 35 32 31 31 29 25 24 23 18 22 21 19 19 18 18 19 19
34 34 34 33 30 26 23 22 22 22 22 21 20 23 22 22 18 17 18 19 18 18
27 26 25 23 22 22 22 21 20 20 21 21 21 21 21 21 19 19 20 20 19 17
26 23 23 22 22 22 20 20 20 20 20 20 18 20 20 21 20 20 20 19 18 18
26 24 23 23 21 20 20 19 19 19 19 19 20 21 21 22 20 20 20 20 21 22
24 24 23 20 20 19 19 18 20 21 21 21 20 21 21 20 20 22 22 21 22 23
24 22 20 20 19 18 19 21 24 25 23 23 22 21 21 19 20 22 21 20 21 22

GFSNIL_sfc_30mbdewp_027.txt.gz
Dewpoint
38 37 38 38 38 36 33 32 34 36 40 41 42 41 41 41 40 39 39 38 38 37
40 38 38 38 36 34 33 33 37 40 39 39 39 39 39 40 40 40 37 38 39 38
37 36 36 36 33 32 34 39 38 39 38 38 38 38 37 38 38 37 38 38 38 36
33 34 34 32 32 34 36 36 37 37 38 36 35 34 34 34 33 32 30 30 30 28
32 32 31 33 35 35 35 36 35 37 36 34 33 29 27 28 25 24 24 25 23 20
30 33 35 35 36 34 35 35 35 35 35 31 28 26 26 24 22 21 20 19 19 18
32 36 36 39 38 38 36 34 34 32 27 24 21 20 20 19 21 20 19 19 19 19
33 34 36 36 35 33 31 25 23 21 20 20 19 18 21 21 21 18 17 17 18 18
29 28 28 28 26 24 24 24 21 19 19 19 18 24 23 22 20 18 18 18 18 18
27 27 27 26 25 24 22 19 18 18 18 18 19 22 22 22 20 18 19 20 20 19
27 27 25 22 21 19 17 18 18 18 18 19 18 23 23 22 20 20 19 20 20 18
26 22 21 20 18 18 18 18 17 18 21 21 22 24 24 21 21 20 20 19 22 22
22 21 20 18 17 18 17 16 19 23 21 22 22 24 22 21 21 21 21 20 19 21
22 21 19 17 18 17 16 19 27 29 25 23 25 25 22 22 21 19 23 21 22 22

GFSNIL_sfc_30mbdewp_030.txt.gz
Dewpoint
43 42 41 41 40 38 37 36 42 42 41 41 40 40 40 40 40 41 40 38 37 37
40 39 39 39 38 36 37 38 40 40 40 39 39 39 39 39 39 38 38 38 38 39
33 35 36 37 36 38 37 37 37 38 38 38 38 38 36 35 35 36 37 37 36 36
33 34 35 37 37 36 37 37 37 36 36 37 37 35 35 34 34 34 34 32 30 30
33 33 35 35 36 38 36 35 37 37 37 37 34 32 30 29 28 27 26 25 24 23
31 34 37 38 38 39 39 38 37 36 34 34 32 27 24 23 24 24 23 22 22 22
34 33 36 36 37 37 38 37 34 31 27 25 23 21 22 23 24 24 22 22 22 22
31 31 32 32 33 31 29 28 27 26 23 23 22 21 23 23 22 22 21 20 21 21
28 30 30 30 30 29 27 27 24 22 22 22 20 24 24 24 23 22 21 20 20 22
26 29 29 29 27 25 25 22 22 21 22 22 24 25 25 24 23 22 21 22 22 22
25 25 27 27 24 23 21 21 21 21 25 24 22 26 26 24 22 21 22 21 20 20
23 25 25 24 23 21 20 21 20 22 24 23 23 24 25 25 23 22 21 20 21 22
28 25 25 24 20 20 20 19 27 26 26 26 24 26 26 25 26 24 22 21 21 21
27 27 25 21 20 20 20 24 27 28 29 27 26 25 23 25 25 24 22 21 20 21

GFSNIL_sfc_30mbdewp_033.txt.gz
Dewpoint
39 39 40 40 38 37 38 40 40 40 39 39 39 39 39 39 40 39 38 38 39 38
34 34 34 38 38 38 38 38 39 39 39 39 38 38 38 38 37 36 37 37 37 37
32 33 37 37 36 36 36 37 37 38 37 35 36 37 37 36 35 35 36 36 36 35
32 35 36 37 37 38 38 36 36 37 37 37 37 37 35 34 33 32 32 32 29 27
31 36 37 37 38 38 38 38 38 37 36 35 35 34 33 29 28 25 23 22 22 22
32 34 35 37 37 37 37 37 37 36 34 33 31 26 25 26 25 24 23 22 21 21
33 32 33 35 36 36 36 35 34 29 28 25 24 24 23 23 23 22 22 23 22 22
32 32 32 31 32 31 30 29 28 24 23 24 23 23 23 23 23 22 22 23 22 21
30 30 31 30 29 29 28 27 23 22 24 24 22 26 26 25 23 22 21 20 22 23
29 30 30 29 29 27 26 22 22 22 24 23 24 27 26 26 24 22 20 20 21 19
29 29 30 32 28 25 20 20 21 24 25 23 23 25 25 27 25 23 22 22 21 20
33 33 34 31 27 21 19 20 23 26 25 24 24 26 27 27 26 25 24 24 22 21
35 35 34 33 27 20 21 26 26 25 27 27 25 26 26 26 24 23 23 22 21 21
34 33 33 26 20 21 24 26 26 25 26 25 25 23 22 24 24 21 21 20 19 20

GFSNIL_sfc_30mbdewp_036.txt.gz
Dewpoint
36 36 37 38 38 38 39 40 40 39 38 38 37 37 37 37 37 38 35 36 37 38
33 34 37 37 37 37 37 38 39 39 39 38 38 37 37 37 36 36 35 35 35 35
33 37 37 37 36 36 37 37 37 37 37 36 37 37 37 36 35 34 34 35 36 35
32 36 37 37 37 37 37 36 37 38 37 36 35 35 33 32 33 31 27 24 23 23
31 36 36 37 37 36 34 36 36 36 36 33 33 33 29 27 26 24 23 23 22 22
29 34 35 36 36 35 35 35 35 35 33 29 28 25 25 24 23 22 23 23 22 22
28 33 33 35 36 35 36 35 33 30 27 26 24 23 22 23 23 23 22 23 22 22
28 32 33 34 33 34 32 31 29 25 25 24 23 23 24 23 23 22 22 21 21 21
29 31 31 32 33 32 30 32 24 23 24 23 23 26 26 25 24 23 22 21 21 22
29 31 32 32 34 35 34 28 22 24 25 23 24 27 26 27 26 24 23 22 22 22
32 32 33 34 34 32 30 26 21 25 24 23 23 26 27 27 26 25 24 24 23 22
34 34 35 35 34 33 33 24 25 25 24 24 25 27 26 25 24 22 22 22 22 20
34 34 35 34 34 32 23 26 25 25 25 26 23 22 23 22 23 20 20 21 19 19
35 34 34 33 26 24 26 25 24 23 23 24 21 20 21 19 17 18 19 18 17 19

GFSNIL_sfc_30mbdewp_039.txt.gz
Dewpoint
34 34 35 37 38 38 38 38 39 39 38 37 37 36 37 36 36 36 36 35 35 36
33 34 35 37 37 37 37 38 39 38 38 38 38 37 37 36 35 35 35 34 35 35
32 36 37 37 36 36 36 37 37 37 37 37 37 37 37 34 33 33 33 33 32 30
31 35 37 36 36 37 37 36 36 36 37 37 34 33 33 32 29 25 24 24 23 22
31 32 35 36 37 37 36 34 35 35 36 35 31 28 26 25 25 23 22 22 22 22
28 29 32 35 36 37 35 35 35 35 34 31 26 25 24 23 22 22 22 23 22 21
28 29 31 33 35 36 35 36 34 34 31 27 25 23 22 23 22 22 22 23 22 20
30 30 31 33 33 34 35 34 34 35 31 26 24 22 23 23 22 22 22 23 22 21
29 30 31 32 33 33 35 35 36 32 27 25 23 25 25 26 25 25 24 23 22 22
31 30 30 31 34 34 33 33 30 26 26 23 24 26 27 27 27 26 25 24 23 22
31 32 33 33 34 31 31 30 29 25 24 22 23 27 27 26 24 22 22 21 22 21
31 33 34 34 34 34 34 32 25 25 23 23 24 24 25 24 21 19 19 20 20 19
34 34 33 34 34 33 25 26 25 24 24 25 20 21 21 20 18 16 18 19 18 18
33 32 32 32 25 26 26 26 24 23 23 23 21 20 20 18 17 17 18 18 18 19

GFSNIL_sfc_30mbdewp_042.txt.gz
Dewpoint
32 31 33 35 37 37 37 38 38 38 38 37 37 37 36 36 35 35 35 35 34 34
31 32 34 36 37 36 37 37 38 38 38 37 37 37 37 36 35 34 34 33 33 34
31 33 35 36 35 36 36 36 36 37 36 36 37 37 36 36 34 32 32 30 25 24
31 32 36 36 36 36 36 36 35 35 35 36 36 34 33 32 28 25 24 23 22 22
30 30 31 33 35 37 37 37 34 35 35 35 34 31 27 26 25 22 22 22 22 22
29 29 29 30 32 35 36 36 35 35 35 34 31 26 25 24 22 22 22 22 22 22
29 28 29 31 31 33 34 35 35 34 33 33 30 25 23 23 22 22 22 23 23 22
30 29 29 29 30 33 34 34 35 35 35 32 24 23 23 23 23 24 24 24 24 23
30 29 29 30 31 33 34 34 35 34 32 26 26 25 26 28 27 27 26 25 24 24
30 30 31 33 33 33 31 31 30 28 27 24 23 26 27 28 25 23 21 20 20 19
29 30 32 33 33 32 32 33 31 27 24 22 24 26 27 26 21 19 19 19 19 19
29 32 32 32 32 34 33 32 30 25 23 23 22 23 24 22 20 17 17 18 19 18
32 32 31 31 33 32 27 25 25 24 23 25 20 21 21 20 18 16 18 19 19 19
32 31 31 31 29 25 25 27 27 23 23 24 21 20 20 19 19 18 19 18 19 20

GFSNIL_sfc_30mbdewp_045.txt.gz
Dewpoint
34 32 32 34 34 35 36 36 39 40 40 39 39 38 38 38 38 38 38 37 36 35
34 35 35 36 38 38 38 38 39 40 39 39 39 39 39 38 37 37 36 35 35 34
33 34 35 37 38 38 38 37 38 38 38 37 37 38 38 37 35 35 34 32 27 26
32 33 33 33 34 34 36 37 38 38 36 35 36 37 36 33 32 28 27 26 24 24
31 32 32 31 31 33 34 36 37 38 36 36 36 35 32 30 26 25 23 23 23 22
30 30 29 30 31 31 32 34 36 36 36 35 34 33 32 26 24 23 23 22 22 21
30 30 30 31 30 32 34 34 35 35 35 35 34 32 29 24 23 23 23 24 23 23
32 31 30 30 32 33 35 35 35 35 34 34 32 29 26 24 24 25 24 24 23 22
32 31 30 31 32 34 34 33 32 32 32 29 27 26 28 27 25 24 20 17 15 14
31 30 30 31 32 32 32 33 32 31 29 27 25 27 28 26 22 19 17 14 13 13
29 29 31 32 31 32 33 34 31 31 27 24 24 25 26 24 21 19 15 14 14 15
29 30 31 30 30 31 32 31 31 29 25 23 22 22 23 21 21 19 17 17 16 16
31 32 30 30 29 30 26 25 26 24 24 24 22 21 21 21 21 20 19 17 15 16
32 32 32 29 28 27 27 28 29 28 24 24 23 22 21 21 21 20 19 16 15 15

GFSNIL_sfc_30mbdewp_048.txt.gz
Dewpoint
33 32 32 31 32 31 30 31 32 35 36 37 37 37 36 35 34 34 34 33 31 29
34 33 33 33 34 34 36 34 34 36 37 37 36 36 35 34 33 32 33 32 32 29
32 32 33 34 33 32 32 31 32 32 32 32 33 34 33 32 30 31 31 30 26 25
31 28 27 27 26 26 26 24 24 24 27 29 31 32 33 33 31 31 29 26 25 22
25 25 24 23 24 25 24 25 26 28 30 31 32 34 34 33 34 31 27 24 23 21
22 22 22 23 24 25 26 28 28 30 30 30 33 33 34 33 33 29 25 23 23 22
21 24 24 25 26 27 28 29 30 30 33 35 35 33 34 30 27 26 24 24 24 22
24 25 25 26 27 28 30 30 30 31 32 33 32 29 28 27 25 24 23 22 19 17
23 25 27 27 28 29 28 29 30 29 29 29 27 26 27 26 23 22 19 17 16 14
21 23 26 26 28 28 28 29 30 30 30 29 28 27 29 24 21 20 18 17 15 13
22 23 25 28 28 27 28 30 30 31 32 29 25 26 26 24 21 20 19 17 16 15
25 26 27 27 27 27 27 27 26 30 30 27 25 23 25 22 21 21 20 19 17 16
26 27 28 28 28 27 26 25 26 25 27 26 25 22 22 21 23 22 21 19 16 16
26 26 26 27 29 26 24 28 30 30 30 25 25 25 22 22 23 22 20 19 16 15

GFSNIL_sfc_30mbdewp_051.txt.gz
Dewpoint
36 35 35 33 32 32 31 32 33 32 32 31 32 35 33 37 37 35 36 34 34 33
35 35 34 33 34 33 33 30 28 30 30 29 29 29 31 35 34 34 33 32 34 31
34 34 33 33 30 29 27 26 24 24 24 24 26 26 27 32 32 33 34 31 30 28
33 29 27 27 25 24 25 24 24 24 25 26 27 26 27 32 31 29 30 29 30 27
25 25 24 22 22 24 24 25 26 26 26 27 26 26 28 29 29 29 29 30 29 27
21 20 21 22 23 24 25 27 27 27 27 27 31 33 33 32 31 32 31 29 26 25
18 22 23 24 24 25 27 28 27 27 28 31 33 31 31 30 30 28 28 27 26 22
20 23 23 24 26 27 28 27 26 27 28 30 30 29 27 28 28 26 25 22 18 17
18 20 21 23 26 26 26 26 27 29 30 30 29 27 27 26 24 22 20 17 17 16
17 18 20 21 22 25 26 26 28 30 30 32 31 28 28 25 22 21 19 18 17 16
18 20 21 23 25 25 25 26 27 29 30 31 34 28 26 25 22 20 20 19 19 17
20 22 24 25 26 26 25 25 26 27 29 29 33 26 25 23 22 21 21 20 19 18
23 24 24 25 26 27 26 24 26 27 28 29 29 25 24 23 23 25 22 20 18 18
24 24 24 24 25 26 24 27 28 32 29 29 30 29 24 23 22 23 22 20 18 18

GFSNIL_sfc_30mbdewp_054.txt.gz
Dewpoint
38 39 38 36 35 36 35 36 36 35 35 35 35 35 35 36 37 39 38 37 36 36
38 37 35 36 36 36 35 30 30 29 30 30 30 31 33 33 35 36 36 36 36 36
35 35 37 34 33 31 29 29 28 28 29 29 30 31 31 31 34 34 35 35 34 33
38 35 29 29 28 26 27 27 28 28 29 29 29 30 31 33 31 32 32 31 32 31
38 28 27 26 25 26 26 28 28 29 29 30 31 35 34 33 33 32 31 32 31 30
24 23 23 24 26 27 27 28 29 30 30 30 32 32 32 32 31 31 31 30 29 27
19 22 26 27 27 28 29 29 30 30 30 31 31 32 30 28 29 30 29 29 28 27
22 23 25 26 28 29 29 29 30 29 31 32 32 31 30 29 27 28 27 26 23 20
19 20 22 25 26 27 28 28 29 30 31 32 31 29 27 26 26 25 24 22 20 20
18 20 22 23 24 26 28 29 29 29 30 31 31 30 31 25 23 24 24 22 21 20
19 21 22 24 26 28 29 28 28 27 28 32 32 33 31 25 23 24 24 23 22 21
21 22 24 25 27 28 28 29 28 27 28 29 33 31 27 24 24 24 25 23 23 22
23 24 25 26 26 27 27 27 29 29 29 30 31 29 26 25 25 24 25 23 22 21
23 24 25 26 26 26 26 28 30 30 31 30 29 32 27 25 24 24 25 24 22 22

GFSNIL_sfc_30mbdewp_057.txt.gz
Dewpoint
40 39 37 36 37 36 37 36 31 29 30 30 30 30 31 33 33 36 39 37 37 36
37 36 36 38 37 38 33 29 28 29 28 29 29 30 31 31 31 35 35 35 36 35
35 35 38 37 36 32 29 28 28 28 29 29 29 31 33 34 34 33 33 33 32 33
35 38 35 32 29 27 27 27 28 29 29 29 31 34 34 33 33 32 32 32 32 31
39 36 30 27 27 28 27 29 29 29 30 30 34 32 31 32 31 31 29 30 30 29
37 27 25 27 28 27 27 28 29 29 29 31 32 30 30 32 31 29 29 30 29 29
23 26 27 27 27 28 29 29 29 29 31 31 31 31 32 30 29 30 30 29 29 28
23 23 23 25 27 28 29 30 29 30 31 32 32 31 30 31 29 27 27 26 25 21
21 21 22 24 25 26 27 29 30 31 31 31 31 30 28 26 27 30 29 23 23 21
20 22 23 24 25 26 28 31 30 30 29 29 31 30 30 31 28 26 26 24 22 21
20 21 24 26 26 29 29 28 28 29 28 30 32 32 32 29 30 24 24 23 22 21
23 25 25 26 27 28 27 26 26 29 28 29 32 33 32 30 23 24 25 24 22 24
26 27 26 26 27 27 27 26 28 29 29 29 30 33 31 27 23 24 23 24 24 22
26 24 25 27 27 27 28 28 29 29 29 29 29 30 31 28 26 23 23 24 24 22

GFSNIL_sfc_30mbdewp_060.txt.gz
Dewpoint
39 39 39 38 38 38 37 34 34 31 30 29 29 30 31 32 32 34 37 37 37 36
38 37 37 39 39 40 38 33 30 29 28 29 29 32 33 33 34 33 34 35 35 36
36 38 38 39 40 37 31 29 28 28 28 29 31 33 33 33 33 32 32 32 31 32
37 39 38 35 33 30 28 28 28 29 29 29 32 34 33 32 32 31 31 31 31 32
38 39 35 30 29 29 28 29 29 29 29 30 33 33 31 30 31 30 29 28 30 30
41 28 27 28 28 27 27 28 29 30 29 30 33 32 30 31 31 31 29 28 30 29
27 28 28 28 28 29 30 29 30 30 31 32 32 31 31 31 30 29 30 30 30 29
25 25 24 24 24 26 27 28 30 32 32 32 32 32 32 31 31 28 27 28 28 24
22 22 23 24 25 26 27 29 31 31 32 31 31 31 30 29 27 29 30 30 29 24
23 22 24 25 26 26 29 30 28 28 30 30 30 32 30 29 30 30 27 27 24 22
23 25 26 25 26 27 30 28 27 27 29 29 30 32 31 32 28 28 27 24 23 22
25 25 25 26 27 28 28 27 26 27 28 28 29 32 33 32 30 24 23 25 24 22
25 26 27 27 27 27 28 28 28 28 29 29 28 30 33 33 28 23 23 25 24 24
26 26 26 27 27 26 26 26 27 29 29 29 29 28 30 33 28 25 26 25 23 24

GFSNIL_sfc_30mbdewp_063.txt.gz
Dewpoint
45 44 43 41 38 38 38 36 39 39 32 29 29 30 31 32 33 35 35 35 35 35
41 40 38 40 41 41 40 41 38 32 29 29 30 32 33 32 32 32 32 31 32 32
39 39 40 43 43 43 41 36 31 30 30 30 31 33 33 33 33 31 31 31 31 31
39 40 40 39 39 39 35 30 30 30 29 29 31 33 33 32 32 30 30 30 29 29
40 39 40 42 41 32 29 29 29 29 29 29 31 32 32 30 30 30 29 29 28 30
42 42 37 31 30 29 28 28 28 29 29 29 30 32 32 30 30 31 31 30 28 29
35 32 29 28 28 28 29 29 30 30 31 32 32 33 31 31 31 30 30 30 30 30
31 28 27 26 24 25 28 28 30 31 31 32 33 32 32 31 31 30 29 27 28 29
25 24 23 24 25 27 27 30 29 29 30 31 32 31 31 31 29 28 28 29 30 31
23 23 25 26 26 26 27 30 28 28 27 27 29 30 31 31 29 28 29 29 28 26
24 26 26 26 26 27 28 29 28 27 27 28 28 30 31 31 30 29 28 28 26 23
27 25 26 25 27 27 27 27 27 28 28 28 28 30 31 31 31 29 29 26 25 24
26 25 25 27 26 27 27 26 26 26 28 29 29 29 30 32 31 29 28 25 25 26
26 26 26 26 27 26 26 26 25 25 26 28 29 28 29 30 31 29 28 25 26 26

GFSNIL_sfc_30mbdewp_066.txt.gz
Dewpoint
51 47 46 45 41 40 38 38 39 42 40 34 30 30 31 30 31 33 34 34 34 33
49 47 44 42 40 40 39 40 43 42 39 30 29 31 31 31 31 33 32 32 31 31
44 42 41 42 42 41 43 42 43 39 32 30 30 32 32 32 32 32 32 31 30 30
41 41 43 43 43 42 42 43 38 33 30 30 30 32 33 33 33 32 30 30 30 29
40 40 40 40 41 43 41 37 32 30 30 30 31 32 33 32 31 31 29 29 29 28
40 41 42 42 42 39 33 30 30 30 30 30 31 31 32 32 31 30 31 30 30 29
42 42 38 35 31 29 29 29 30 30 30 31 32 32 33 32 31 31 31 30 30 29
39 34 31 29 28 27 28 27 29 30 30 31 32 32 31 31 32 31 30 29 28 28
31 26 24 26 27 27 27 28 30 29 29 29 29 30 32 32 31 30 29 28 28 29
24 25 26 27 27 26 26 29 29 29 28 27 28 28 29 30 31 29 28 28 29 29
26 28 27 26 25 26 28 28 28 28 28 28 28 29 30 31 31 29 29 29 28 28
28 26 26 26 26 27 27 27 27 27 26 25 26 28 30 30 30 30 29 29 29 27
27 26 26 26 27 27 27 26 27 25 25 26 27 28 30 30 30 29 29 29 28 27
27 25 26 26 26 26 26 26 25 25 25 25 26 26 27 29 30 29 28 28 27 26

GFSNIL_sfc_30mbdewp_069.txt.gz
Dewpoint
55 52 50 49 47 46 44 42 41 41 41 40 40 36 34 34 33 34 36 36 37 34
55 53 50 49 47 46 44 41 43 45 43 43 37 33 34 33 33 36 36 36 36 33
54 54 51 48 45 43 42 42 45 45 44 39 33 34 34 34 34 34 35 34 33 32
52 50 47 45 43 43 44 44 45 44 39 33 33 33 34 34 34 34 34 33 32 31
46 45 45 44 44 44 44 46 42 38 34 32 32 32 33 33 33 33 33 32 32 31
45 43 43 43 44 45 43 40 36 33 32 32 32 32 33 33 34 33 33 32 32 31
42 43 44 44 41 37 34 33 32 32 32 33 32 32 33 33 33 33 32 33 32 31
43 42 39 36 33 33 33 30 29 30 32 32 32 30 31 32 33 33 33 33 32 31
40 36 32 30 30 32 29 30 31 30 31 31 28 28 29 30 30 31 31 30 30 30
29 28 30 30 29 27 28 32 31 31 31 30 30 28 28 29 29 29 29 30 30 28
29 29 28 28 30 31 29 29 29 30 30 30 28 27 27 29 29 30 30 30 30 29
29 27 31 32 29 29 29 29 29 28 29 28 27 28 27 29 28 28 29 30 30 29
29 29 28 28 28 28 28 27 28 27 28 28 27 28 28 29 29 30 28 29 29 29
27 26 27 27 28 27 27 28 29 29 28 28 28 28 28 29 29 29 28 26 26 28

GFSNIL_sfc_30mbdewp_072.txt.gz
Dewpoint
57 56 54 53 50 48 47 46 46 45 43 42 40 41 41 36 33 33 33 32 31 29
57 56 55 54 53 51 49 47 46 44 44 44 44 43 37 34 33 33 33 33 33 32
57 57 55 55 53 51 48 45 45 45 45 45 43 37 35 33 33 32 33 32 32 31
56 57 56 54 52 49 46 44 45 45 47 47 38 34 34 33 31 32 32 31 32 31
55 53 49 48 47 47 46 46 47 47 44 37 33 33 32 31 29 30 30 30 31 31
48 49 48 47 47 47 47 47 44 40 35 33 32 30 31 31 30 31 30 30 30 30
48 47 46 46 45 44 42 39 36 37 33 31 30 30 30 29 29 29 29 29 30 30
45 44 43 42 42 40 36 37 37 31 29 31 31 29 27 26 26 27 26 27 29 30
42 41 40 39 37 36 35 34 29 31 34 32 28 26 28 28 26 24 24 25 25 25
38 36 34 32 31 31 31 33 35 33 30 28 27 29 29 28 25 23 22 23 23 23
31 31 31 30 31 34 36 33 30 29 28 27 26 28 28 26 25 23 23 24 25 25
30 30 33 36 37 32 29 28 26 25 25 25 25 27 28 28 27 26 26 26 26 26
32 33 34 32 28 26 25 24 25 25 26 27 28 29 30 30 29 30 30 29 29 28
30 29 27 26 25 25 25 27 30 31 29 27 26 26 27 28 26 25 25 24 26 29

GFSNIL_sfc_30mbdewp_075.txt.gz
Dewpoint
58 57 56 55 54 54 52 51 50 49 48 46 44 44 43 43 40 39 37 35 32 31
58 57 57 56 56 54 53 50 50 49 47 46 45 45 43 39 40 36 35 35 34 33
57 58 57 57 56 55 53 52 49 49 46 47 45 45 43 40 35 35 35 33 33 33
57 57 58 57 56 56 53 48 48 47 45 46 47 47 41 36 35 33 33 33 32 32
57 56 54 52 51 50 49 48 47 46 47 49 46 39 37 36 33 32 31 32 32 30
52 51 49 49 49 48 47 47 48 47 45 43 41 37 33 32 33 32 32 31 29 28
50 49 48 48 48 47 46 45 44 44 44 42 37 32 31 32 31 29 28 27 27 27
48 48 47 46 46 45 43 43 41 41 40 36 30 31 32 30 26 24 24 25 25 25
47 46 44 43 42 42 39 38 38 38 31 33 35 28 26 26 24 23 22 22 21 22
44 42 41 38 37 36 35 34 34 33 36 34 30 27 27 28 26 23 21 21 22 22
41 38 35 33 32 33 34 36 36 34 31 30 27 28 28 28 27 25 25 25 25 26
35 32 32 33 35 38 37 33 31 28 25 25 25 28 28 29 29 29 29 28 27 26
31 32 34 36 36 32 30 26 23 23 25 28 28 30 28 27 27 26 26 24 22 23
33 33 33 31 28 26 24 25 30 32 31 26 24 25 24 25 22 22 24 23 23 24

GFSNIL_sfc_30mbdewp_078.txt.gz
Dewpoint
59 57 57 57 56 54 54 53 51 52 51 50 49 48 46 45 44 41 41 37 38 35
59 59 58 58 57 56 55 54 53 52 51 50 47 46 46 43 40 41 42 42 38 37
58 59 59 58 57 56 56 54 53 52 49 47 46 45 43 42 43 44 43 38 38 37
59 59 59 58 57 56 54 52 49 48 47 46 46 46 45 45 44 42 38 37 37 35
59 58 58 56 54 52 50 49 48 48 47 47 48 49 46 43 40 39 37 36 35 35
57 57 55 53 51 50 49 49 48 47 47 47 46 45 44 41 40 37 36 35 34 33
54 52 51 50 49 48 48 48 47 47 46 45 45 43 42 39 35 35 32 32 31 30
49 49 48 48 48 48 47 46 45 45 45 44 42 41 37 34 31 26 25 27 28 27
48 48 48 47 46 44 44 44 44 43 42 40 38 30 27 28 26 26 26 26 25 26
46 45 44 43 43 42 41 40 39 38 38 37 37 28 26 26 28 26 26 26 26 26
44 42 41 40 40 38 37 36 36 38 36 32 31 29 29 29 29 28 28 30 30 30
41 39 38 36 36 36 37 38 36 33 31 28 30 30 29 29 31 31 29 28 27 26
38 35 34 35 37 39 38 34 31 27 33 30 29 28 26 25 26 25 25 25 25 25
33 33 36 37 35 31 28 32 33 32 29 26 26 26 27 26 26 25 25 25 24 25

GFSNIL_sfc_30mbdewp_081.txt.gz
Dewpoint
57 56 56 57 57 56 55 55 54 54 53 51 50 48 47 46 44 42 41 39 38 36
58 57 57 57 57 56 55 54 53 53 52 51 48 47 46 46 44 42 42 40 41 41
58 58 58 58 57 56 55 54 53 53 50 47 47 47 46 45 44 42 42 43 44 41
59 58 59 58 57 56 56 54 52 48 47 46 47 48 46 45 45 45 45 45 42 39
59 59 59 58 57 55 53 50 48 48 48 48 47 47 46 46 46 44 42 41 38 37
58 58 57 55 54 52 50 49 49 48 47 47 47 48 47 45 44 43 41 39 36 36
57 56 54 52 51 50 49 49 48 48 48 47 47 46 45 44 42 41 39 36 33 31
53 52 51 50 50 49 49 48 48 47 46 46 45 44 43 42 39 31 26 27 27 26
49 49 49 49 48 47 46 46 46 46 46 45 43 41 39 33 27 26 25 24 25 26
48 47 46 45 45 45 45 45 44 44 43 42 41 33 27 28 27 26 25 24 25 27
45 45 45 44 44 43 42 42 42 40 39 38 33 29 28 28 28 28 30 30 29 27
43 42 42 42 41 40 39 37 36 38 35 31 30 29 29 31 29 28 26 27 26 26
42 41 41 40 38 38 38 37 34 32 31 29 27 26 26 25 25 24 24 24 25 25
39 37 37 38 38 37 34 33 30 28 28 27 27 28 27 26 23 21 21 22 23 24

GFSNIL_sfc_30mbdewp_084.txt.gz
Dewpoint
56 55 55 55 56 56 56 56 56 56 55 53 51 50 49 47 45 45 45 45 43 41
57 57 55 56 57 57 57 57 55 55 54 53 50 49 47 46 46 46 45 45 44 43
57 57 56 56 57 57 57 56 55 54 52 49 48 47 47 46 46 46 46 45 43 44
57 58 57 57 57 57 56 55 54 53 50 48 47 47 47 47 47 46 44 45 45 44
57 58 58 57 57 56 55 55 52 51 49 48 47 48 47 46 45 44 44 45 44 43
58 58 58 57 56 56 55 53 51 50 48 47 47 47 47 46 46 46 45 43 42 40
58 58 58 56 56 56 53 51 50 50 49 48 48 48 47 46 46 45 44 42 39 37
56 57 56 55 54 52 51 50 49 49 48 48 48 47 47 46 44 42 39 34 30 28
52 52 52 50 50 50 49 49 48 47 47 46 46 46 45 43 40 38 30 26 25 25
49 48 48 48 48 47 47 47 46 46 46 45 43 44 42 39 31 27 25 24 26 29
48 47 46 46 46 45 45 45 45 45 44 44 39 37 34 30 28 30 30 29 27 26
46 46 45 44 44 44 44 44 43 43 40 36 34 32 30 31 29 27 26 26 26 25
44 44 43 43 42 42 41 38 36 34 33 30 30 30 28 26 26 24 22 23 23 24
43 43 42 42 41 39 35 32 31 30 29 28 28 28 27 25 22 21 21 21 21 22

GFSNIL_sfc_30mbdewp_087.txt.gz
Dewpoint
50 50 52 53 54 55 55 54 55 56 57 56 53 52 50 49 47 46 44 43 44 42
50 51 52 54 55 55 56 56 56 56 56 55 53 51 49 47 46 46 46 46 45 44
51 52 53 54 55 55 56 56 56 55 55 54 52 50 49 47 47 46 46 46 45 45
53 55 56 56 55 56 56 56 55 55 55 52 51 50 48 47 47 46 46 46 45 45
55 56 57 57 57 56 56 56 55 54 53 52 50 49 48 47 47 47 46 45 44 43
52 55 56 57 56 56 56 55 54 54 53 51 50 49 49 47 47 47 46 45 44 44
52 55 56 57 56 56 55 56 54 53 52 51 50 49 48 47 46 46 45 45 45 44
53 56 56 57 56 56 56 56 53 52 51 50 49 48 47 47 46 46 45 44 42 40
54 56 56 55 55 54 52 52 51 51 50 48 48 47 47 46 45 44 42 38 32 30
52 52 51 51 51 50 50 50 49 48 48 48 47 45 44 43 41 39 36 32 29 29
50 50 49 49 49 48 47 47 46 46 46 44 43 43 41 39 36 32 30 29 29 27
48 47 47 46 45 45 45 45 44 44 42 40 38 37 35 32 30 28 27 26 26 25
46 46 45 44 44 45 44 42 40 37 36 35 34 33 31 30 28 26 23 23 23 23
44 44 43 43 41 38 36 34 32 30 30 30 30 30 29 27 26 24 23 21 20 21

GFSNIL_sfc_30mbdewp_090.txt.gz
Dewpoint
48 48 49 49 49 50 51 53 54 55 55 55 55 54 52 51 51 49 48 46 43 42
49 49 48 50 52 52 54 54 54 54 55 55 55 54 53 52 50 49 48 46 45 44
49 49 50 50 52 53 54 55 55 55 55 55 54 53 52 51 49 48 47 47 45 45
49 50 50 50 51 53 54 55 55 55 55 55 53 52 51 50 49 49 48 47 46 46
50 50 51 51 52 53 54 55 55 55 55 55 53 51 51 51 50 50 48 47 46 46
51 52 52 53 54 55 56 55 55 56 55 55 53 53 52 53 51 49 48 47 47 46
50 52 53 54 55 56 56 56 56 55 55 54 53 53 52 51 50 49 48 48 46 46
50 52 52 54 55 56 56 56 56 55 55 53 52 51 50 50 49 47 46 46 45 44
51 52 52 54 54 56 56 55 55 53 52 51 51 51 49 49 48 46 44 42 40 38
52 52 54 54 55 55 54 53 52 52 51 51 50 49 47 47 46 43 39 36 34 33
52 52 52 52 52 51 50 49 49 48 47 45 42 42 41 40 38 37 35 35 33 30
51 50 49 48 47 46 46 45 43 42 41 39 36 37 36 35 33 31 30 29 28 27
47 46 45 45 44 44 42 39 37 35 35 34 33 33 32 30 28 26 26 27 27 27
44 43 43 40 39 37 34 32 31 29 29 30 30 31 31 30 29 28 27 25 23 22

GFSNIL_sfc_30mbdewp_093.txt.gz
Dewpoint
49 49 50 49 48 50 50 51 52 54 54 55 56 56 56 55 54 54 52 50 48 49
50 49 48 48 50 50 50 51 53 54 54 54 55 55 55 55 55 54 53 52 50 51
50 50 49 50 50 50 51 52 52 53 54 54 55 55 55 55 55 54 53 52 51 50
51 50 50 50 50 50 51 52 52 53 54 54 55 55 55 55 54 52 51 50 50 49
52 51 51 51 51 51 51 53 53 53 53 54 55 55 53 53 53 51 51 50 49 49
51 51 51 51 51 51 52 52 52 53 53 54 55 54 55 54 54 52 51 51 50 49
50 51 50 51 51 52 52 52 53 54 54 55 56 56 55 54 53 52 52 53 51 49
50 51 51 52 52 53 54 55 55 56 56 56 56 55 54 53 53 52 51 50 50 49
50 51 52 53 53 54 55 56 56 56 56 56 55 54 52 52 51 51 49 48 42 42
50 50 51 52 53 53 54 55 56 55 55 53 51 50 50 47 47 46 42 38 38 36
52 52 53 53 54 53 51 50 48 46 45 42 38 40 43 41 38 36 35 35 33 32
52 51 49 48 47 46 45 42 40 39 37 35 34 34 35 34 32 30 29 30 30 30
47 46 45 44 42 40 37 35 34 32 32 32 32 32 31 30 29 28 27 27 27 27
43 41 40 39 38 35 33 31 30 29 29 29 30 31 31 30 28 27 26 25 24 25

GFSNIL_sfc_30mbdewp_096.txt.gz
Dewpoint
51 52 52 51 50 52 49 49 51 52 52 54 53 54 54 55 55 55 55 55 55 54
51 51 51 51 50 49 49 50 51 52 53 53 53 53 54 54 54 55 55 55 56 55
50 50 50 50 50 50 49 49 49 51 52 52 52 52 53 53 53 53 54 54 54 54
52 52 51 50 50 50 50 50 50 50 51 51 51 51 52 52 52 52 53 54 55 55
52 52 51 51 50 50 49 50 51 51 50 50 50 51 52 53 53 53 53 55 54 53
52 52 52 52 52 51 52 51 51 51 51 51 51 51 52 54 54 54 54 55 54 53
51 52 52 52 52 52 52 51 51 51 51 51 51 51 52 54 54 55 56 55 54 53
51 51 52 52 52 52 52 52 51 51 51 52 53 54 54 55 56 55 54 53 53 53
51 51 51 51 51 51 52 52 52 52 53 54 56 55 55 55 55 53 51 51 45 41
51 51 51 51 52 52 53 54 54 55 54 48 42 42 49 48 46 42 39 38 37 35
51 51 51 51 52 53 51 48 45 41 39 37 35 37 38 37 35 33 32 32 32 31
53 53 50 48 46 44 40 37 35 35 34 33 32 33 33 32 30 28 28 29 29 28
46 45 42 40 37 36 34 33 32 31 32 32 31 32 31 30 28 27 26 26 26 27
39 38 37 35 34 32 31 29 29 28 29 29 30 30 30 29 28 27 26 25 24 25

GFSNIL_sfc_30mbdewp_099.txt.gz
Dewpoint
54 52 52 54 55 54 53 55 55 54 53 53 54 55 55 56 53 53 56 56 56 55
53 52 50 53 54 54 54 54 55 55 53 53 53 54 53 52 52 53 55 57 57 56
52 53 52 52 52 54 54 51 52 54 53 53 52 53 53 53 54 54 55 56 56 55
52 51 52 52 53 52 52 52 51 52 52 52 52 53 53 54 54 53 53 54 54 54
53 52 51 51 52 53 52 52 51 51 50 51 51 52 52 53 52 52 53 53 54 54
53 52 52 52 53 53 52 52 52 51 51 51 51 52 53 53 53 53 53 54 54 54
51 52 52 52 53 53 53 52 51 52 52 52 52 51 51 51 52 53 53 55 54 54
51 52 52 52 52 53 53 52 52 52 51 51 51 51 51 51 52 53 54 55 51 40
51 51 52 52 53 52 52 52 52 51 51 52 48 43 48 52 53 47 44 42 37 35
51 51 51 52 52 52 52 52 47 45 42 38 37 38 40 39 37 35 34 34 33 32
51 51 51 51 50 46 43 40 38 36 35 34 34 34 34 33 32 31 30 30 30 30
52 52 48 44 40 38 35 34 33 34 33 32 32 32 32 30 29 28 28 29 29 28
44 41 38 36 34 33 32 31 31 31 31 32 31 32 31 30 29 27 27 26 26 27
37 35 34 33 32 31 30 29 28 28 28 29 29 29 30 30 29 28 26 26 25 25

GFSNIL_sfc_30mbdewp_102.txt.gz
Dewpoint
55 56 56 56 56 55 55 54 55 55 56 56 54 54 56 56 56 56 56 54 53 53
54 54 55 55 55 55 56 57 56 55 55 56 55 55 55 54 54 55 54 53 54 53
54 53 53 55 55 54 55 55 56 55 54 54 53 54 54 54 53 53 54 55 55 55
54 54 52 53 55 55 55 55 55 55 55 54 53 54 53 53 52 52 53 54 55 55
53 54 53 53 51 52 55 54 53 55 54 53 53 53 53 53 53 54 54 54 54 54
53 53 53 53 54 54 54 54 53 53 53 52 52 52 53 53 53 53 53 53 53 53
54 54 53 53 53 53 54 53 53 53 52 52 52 52 52 52 53 53 54 53 46 42
54 54 54 54 54 54 54 53 53 53 53 53 53 50 49 53 53 51 46 39 38 36
54 54 54 55 55 55 54 54 54 53 49 43 40 40 48 48 43 40 39 35 34 34
52 53 54 54 54 54 52 46 42 39 38 36 35 35 36 36 35 34 33 33 32 32
52 52 53 52 45 42 39 37 35 34 34 33 33 33 33 32 31 30 30 30 30 29
52 47 43 40 38 36 35 33 33 32 32 31 31 32 31 30 29 28 28 28 29 28
41 39 37 35 34 33 32 31 30 30 30 31 31 32 31 30 28 27 27 27 26 26
35 34 33 32 31 30 29 29 28 28 28 28 28 30 30 30 29 28 27 26 24 25

GFSNIL_sfc_30mbdewp_105.txt.gz
Dewpoint
56 56 56 56 56 56 55 56 56 55 56 57 57 57 56 55 55 55 54 53 53 53
56 56 56 56 55 55 55 56 55 54 54 56 57 56 55 55 54 55 55 54 54 54
55 56 56 56 55 55 55 55 55 54 53 55 56 55 55 54 54 53 53 54 54 54
54 55 56 55 55 55 55 54 55 54 53 54 55 55 54 53 54 54 54 54 54 54
54 53 53 55 55 55 55 56 55 55 54 54 53 53 53 53 53 53 52 52 52 53
54 54 52 53 54 55 55 54 56 55 54 54 53 53 53 53 53 52 53 53 54 53
54 54 53 53 52 52 55 55 54 55 55 55 54 54 53 53 53 53 50 45 42 40
54 54 54 54 54 54 54 54 54 54 54 54 52 48 51 53 52 47 41 38 36 36
54 54 54 53 53 54 54 54 52 46 45 42 39 41 47 45 42 38 36 34 34 34
54 54 54 54 54 53 48 43 40 38 37 35 35 36 36 36 35 34 33 32 32 31
54 54 54 51 44 41 39 37 35 34 33 33 33 33 33 33 31 30 30 30 29 29
53 47 43 40 37 36 34 33 32 32 32 31 31 31 30 29 29 28 28 29 29 29
42 40 37 35 33 33 32 31 30 30 31 32 31 32 31 29 28 27 26 27 28 28
36 35 33 32 32 30 29 28 28 27 28 29 30 30 30 30 28 26 24 24 25 26

GFSNIL_sfc_30mbdewp_111.txt.gz
Dewpoint
56 56 56 56 56 57 57 59 58 58 58 59 58 56 56 55 55 55 54 53 53 52
56 56 57 57 58 58 59 58 58 58 58 58 58 57 57 56 56 56 56 55 55 54
56 56 56 57 57 57 58 58 57 57 57 58 58 57 57 56 56 55 56 55 54 54
56 56 56 56 56 56 57 57 57 57 56 56 56 57 56 56 55 55 54 55 54 53
56 56 55 55 55 56 56 56 56 56 56 56 56 55 55 55 55 55 54 54 54 53
55 56 55 55 55 55 55 55 55 55 55 55 55 55 55 55 54 54 54 53 53 51
55 55 55 55 55 54 55 55 54 54 55 55 55 55 55 54 54 52 47 42 40 39
54 54 55 55 55 55 54 54 54 54 53 53 53 53 54 53 52 45 39 36 35 35
53 53 54 54 54 55 55 54 54 52 50 49 47 47 51 49 44 39 36 34 33 33
54 53 52 53 53 53 50 47 45 43 42 41 40 42 42 40 37 35 33 32 32 31
54 53 53 52 48 45 42 40 38 36 35 35 35 36 35 33 32 31 31 31 31 30
53 52 48 44 40 38 37 35 34 33 33 32 32 32 32 31 29 28 27 27 28 28
50 46 42 39 37 35 34 32 32 31 31 31 30 31 31 29 27 26 26 27 28 28
44 41 38 36 35 34 32 31 30 30 30 30 30 30 30 28 26 25 25 24 24 25

GFSNIL_sfc_30mbdewp_114.txt.gz
Dewpoint
55 55 55 56 57 58 59 59 60 60 58 57 54 56 54 54 53 52 51 50 50 50
56 56 55 56 56 56 57 58 60 60 60 58 57 57 55 54 53 53 53 53 53 53
56 56 56 57 57 57 58 58 58 59 60 59 58 57 56 55 55 54 54 54 54 54
56 56 56 56 56 57 58 58 58 58 58 58 57 57 56 55 55 54 54 55 54 54
56 56 56 56 56 57 57 57 57 57 58 57 57 57 56 55 55 55 54 54 54 54
55 55 55 55 56 56 56 56 56 56 56 57 57 57 56 56 55 55 55 54 54 54
55 55 55 55 55 55 55 55 55 55 55 55 56 56 56 55 55 51 48 46 45 45
55 56 55 55 55 55 55 55 55 55 55 55 55 55 55 53 48 43 39 37 36 36
54 55 55 54 54 54 54 54 54 53 52 51 51 53 52 47 42 39 36 34 33 33
54 53 54 54 54 54 50 49 47 46 46 45 45 47 45 41 38 36 34 32 31 31
53 53 53 53 48 45 43 42 40 39 38 37 36 38 37 35 34 33 32 32 31 30
54 52 49 46 43 40 38 36 35 34 34 33 32 33 33 32 30 29 29 30 29 29
51 49 46 42 39 36 35 33 32 31 31 32 31 32 31 30 29 27 26 26 27 26
47 44 40 37 36 34 32 31 30 29 30 30 30 30 30 29 27 25 23 22 22 23

GFSNIL_sfc_30mbdewp_117.txt.gz
Dewpoint
58 58 58 59 59 58 59 59 59 58 57 56 54 51 51 52 52 52 53 52 51 50
57 56 56 57 58 59 59 59 60 59 58 57 55 55 52 52 52 53 53 52 52 51
57 56 56 56 56 56 57 58 60 60 59 58 56 55 53 52 53 53 53 53 52 53
56 56 56 56 57 57 57 58 58 58 59 58 57 56 55 53 53 52 53 53 52 53
56 56 55 56 56 57 58 58 58 58 58 58 58 57 56 54 53 52 53 53 53 54
55 55 55 56 56 57 57 57 57 57 57 57 58 57 56 55 54 54 53 53 53 53
55 55 55 56 56 56 56 56 56 56 57 57 57 57 56 56 55 55 55 54 54 54
55 56 55 55 55 56 56 56 56 55 55 56 56 56 56 54 48 45 42 40 39 39
55 55 55 55 55 55 55 55 54 54 53 53 51 49 47 46 42 39 37 34 33 33
55 55 55 55 54 54 52 50 48 47 46 45 44 44 42 39 38 35 33 32 31 30
54 54 54 54 50 48 46 45 43 40 39 38 37 38 36 35 34 32 32 31 30 29
53 53 52 48 45 42 40 37 36 35 34 33 33 34 34 33 31 29 29 29 29 28
53 51 47 43 40 37 35 33 32 32 32 32 31 33 32 31 30 27 26 27 27 26
50 46 42 39 36 34 32 31 30 30 30 30 31 31 31 29 27 25 23 23 23 25

GFSNIL_sfc_30mbdewp_120.txt.gz
Dewpoint
58 57 58 58 58 58 59 59 58 57 55 55 54 55 54 54 54 55 55 54 53 50
58 58 57 58 59 59 59 59 59 58 57 56 54 54 54 53 53 54 55 55 55 51
58 57 57 58 59 59 59 60 60 59 58 57 56 54 54 53 52 53 54 55 55 53
57 57 57 57 57 58 58 58 59 59 59 58 57 56 54 54 54 52 53 53 53 53
57 56 56 56 56 56 55 57 57 58 58 59 57 56 55 54 54 53 52 53 53 53
57 55 55 54 55 57 57 57 58 58 58 58 58 57 56 55 54 53 52 52 52 53
56 53 53 55 56 56 56 56 57 58 58 57 58 58 57 56 55 54 53 53 53 53
54 55 55 56 56 56 56 56 56 57 57 56 57 57 57 56 55 54 49 45 44 44
54 55 55 55 55 56 56 56 56 55 53 51 48 50 50 48 44 40 38 35 34 33
54 54 55 55 55 55 54 52 49 47 45 42 40 41 40 39 37 36 34 33 31 30
53 53 54 54 54 51 48 46 43 40 39 37 36 36 35 34 33 32 31 31 30 28
53 53 54 51 48 44 42 39 38 36 36 35 34 34 33 32 31 30 29 29 28 28
53 54 50 46 42 40 37 35 34 33 33 33 33 33 33 31 30 28 26 26 26 25
53 50 45 41 38 36 34 32 31 31 32 32 32 32 32 30 28 27 25 24 24 24